Location: ?�kov
(49.4404°N, 15.1201°E)
Time: 17:04:45
(UTC+00:00)

Cosmos 1892 - Pass Details

Date: 07 June 2020
Orbit: 504 x 524 km, 82.5° (Epoch: 08 July)

Event Time Altitude Azimuth Distance (km) Brightness Sun altitude
Exits shadow 01:21:46 14° 187° (S) 1,507 4.5 -11.1°
Maximum altitude 01:25:01 87° 101° (ESE) 518 2.7 -10.8°
Drops below altitude 10° 01:28:50 10° 10° (N) 1,736 6.5 -10.4°
Sets 01:30:57 0° 11° (N) 2,624 7.6 -10.2°
